Tracking 29528 objects as of 14-Sep-2024
HD Live streaming from Space Station
objects crossing your sky now

FENGYUN 1C DEB

Track FENGYUN 1C DEB now!
10-day predictions


NORAD ID: 30656
Int'l Code: 1999-025APN
Perigee: 764.0 km
Apogee: 817.5 km
Inclination: 99.0 °
Period: 100.5 minutes
Semi major axis: 7161 km
RCS: 0.021 m2 (small)
Launch date: May 10, 1999
Source: People's Republic of China (PRC)
Launch site: Taiyaun Space Center, China (TSC)

Note: This is SATELLITE DEBRIS
Your satellite tracking list
Your tracking list is empty




NASA's NSSDC Master Catalog

Two Line Element Set (TLE):
1 30656U 99025APN 24257.84735244  .00027228  00000-0  99623-2 0  9994
2 30656  99.0034  42.4788 0037366 344.9271  15.0795 14.32429209906216
Source of the keplerian elements: AFSPC